User: anonymous
Location: Unspecified
(0.0000°N, 0.0000°E)
Time: 13:20:45
(UTC+02:00)
Language:

NATO 3D Rocket - Orbit

View from above orbital plane
View from above orbital plane
View from above satellite
View from above satellite

Ground track
Ground track

The orbit data is extracted from the following two-line orbital elements,

1 15392U 84115B   14288.98300226  .00000160  00000-0  58560-5 0  2070
2 15392 021.4926 087.1181 1034979 334.5281 183.9116 12.45435272362332
Epoch (UTC): 15 October 2014 23:35:31
Eccentricity: 0.1034979
inclination: 21.4926°
perigee height: 670 km
apogee height: 2297 km
right ascension of ascending node: 87.1181°
argument of perigee: 334.5281°
revolutions per day: 12.45435272
mean anomaly at epoch: 183.9116°
orbit number at epoch: 36233

The dashed part of the orbit path shows where the satellite is in the earth's shadow,  

DLR